Regional Weather Roundup
Issued by NWS

Home | Current Version | Previous Version | Graphics & Text | Print | Product List | Glossary On
Versions: 1 2 3 4 5 6 7 8 9 10 11 12 13 14 15 16 17 18 19 20 21 22 23 24 25 26 27 28 29 30 31 32 33 34 35 36 37 38 39 40 41 42 43 44 45 46 47 48 49 50
000
ASUS43 KMKX 301200
RWRWI

WISCONSIN REGIONAL WEATHER ROUNDUP
NATIONAL WEATHER SERVICE MILWAUKEE/SULLIVAN WI
700 AM CDT THU OCT 30 2014

NOTE: "FAIR" INDICATES FEW OR NO CLOUDS BELOW 12,000 FEET WITH NO
SIGNIFICANT WEATHER AND/OR OBSTRUCTIONS TO VISIBILITY.

WIZ001-002-006>008-014>016-023>028-301300-
NORTHWEST WISCONSIN

CITY           SKY/WX    TMP DP  RH WIND       PRES   REMARKS
SUPERIOR ARPT  CLOUDY    36  33  90 CALM      30.07R
ASHLAND        CLOUDY    38  33  82 SW3       30.06S
6HR MIN TEMP:  38; 6HR MAX TEMP:  40;

HAYWARD        CLOUDY    36  33  89 CALM      30.05S
6HR MIN TEMP:  36; 6HR MAX TEMP:  38;

SIREN          MOCLDY    35  32  90 CALM      30.05S
CUMBERLAND     CLOUDY    34  32  93 CALM      30.05S FOG
RICE LAKE      CLOUDY    34  33  94 CALM      30.06F
CHETEK         CLOUDY    34  33  95 CALM      30.06S
LADYSMITH      CLOUDY    36  33  92 CALM      30.06F
EAU CLAIRE     NOT AVBL
MENOMONIE      NOT AVBL
NEW RICHMOND   CLOUDY    37  35  92 SE3       30.04F
OSCEOLA        CLOUDY    37  37  97 CALM      30.07S
$$

WIZ003>005-009-010-017-018-301300-
NORTH CENTRAL WISCONSIN

CITY           SKY/WX    TMP DP  RH WIND       PRES   REMARKS
MANITOWISH WTR CLOUDY    36  33  90 CALM      30.02F
ARBOR VITAE    CLOUDY    37  33  87 SW3       30.03S
WOODRUFF       CLOUDY    37  33  87 SW3       30.03S
RHINELANDER    CLOUDY    36  31  82 SW7       30.04S WCI  30
6HR MIN TEMP:  36; 6HR MAX TEMP:  37;

EAGLE RIVER    CLOUDY    36  31  83 CALM      30.02F
LAND O LAKES   CLOUDY    36  33  89 CALM      30.03S
PHILLIPS       CLOUDY    35  32  88 SW3       30.04S
TOMAHAWK       CLOUDY    34  31  89 CALM      30.05S
MEDFORD        CLOUDY    32  31  98 CALM      30.05S
MERRILL        CLOUDY    32  32 100 CALM      30.06R
$$

WIZ029-030-035-036-043>047-301300-
CENTRAL WISCONSIN

CITY           SKY/WX    TMP DP  RH WIND       PRES   REMARKS
WAUSAU         CLOUDY    34  31  88 CALM      30.05S
6HR MIN TEMP:  32; 6HR MAX TEMP:  34;

MOSINEE        PTCLDY    32  32 100 CALM      30.07R
MARSHFIELD     CLOUDY    33  31  92 CALM      30.06R
6HR MIN TEMP:  32; 6HR MAX TEMP:  34;

STEVENS POINT  CLOUDY    31  30  97 CALM      30.07S
WAUPACA        CLOUDY    34  33  95 CALM      30.09S
WAUTOMA        NOT AVBL
WISC RAPIDS    CLOUDY    33  32  96 CALM      30.09S
6HR MIN TEMP:  30; 6HR MAX TEMP:  34;

CAMP DOUGLAS   NOT AVBL
$$

WIZ011>013-019>022-031-037>040-048>050-301300-
NORTHEAST WISCONSIN

CITY           SKY/WX    TMP DP  RH WIND       PRES   REMARKS
ANTIGO         CLOUDY    32  32  99 CALM      30.05S
SHAWANO        CLOUDY    38  34  85 CALM      30.08S
OCONTO         CLOUDY    38  36  92 CALM      30.08S
STURGEON BAY   CLOUDY    41  34  75 SW5       30.08S
6HR MIN TEMP:  39; 6HR MAX TEMP:  43;

GREEN BAY      CLOUDY    37  35  92 S3        30.08F
6HR MIN TEMP:  36; 6HR MAX TEMP:  42;

MANITOWOC      NOT AVBL
APPLETON       MOCLDY    36  34  93 CALM      30.08S
CLINTONVILLE   CLOUDY    34  32  93 CALM      30.08S
OSHKOSH        CLOUDY    35  32  88 S5        30.08F WCI  31
6HR MIN TEMP:  32; 6HR MAX TEMP:  37;

$$

WIZ032>034-041-042-053>061-301300-
SOUTHWEST WISCONSIN

CITY           SKY/WX    TMP DP  RH WIND       PRES   REMARKS
LA CROSSE      CLOUDY    38  35  89 SE6       30.08S WCI  33
6HR MIN TEMP:  36; 6HR MAX TEMP:  38;

SPARTA         MOCLDY    31  31  99 CALM      30.09S
VIROQUA        CLOUDY    36  33  87 S5        30.07S WCI  32
BOSCOBEL       FOG       32  30  92 CALM      30.11S VSB 1/4
6HR MIN TEMP:  29; 6HR MAX TEMP:  32;

PRAIRIE DU CHI CLOUDY    33  32  95 E3        30.09S
PLATTEVILLE    CLOUDY    35  32  90 SE3       30.10R
$$

WIZ056-057-062-063-064-067-068-301300-
SOUTH CENTRAL WISCONSIN

CITY           SKY/WX    TMP DP  RH WIND       PRES   REMARKS
REEDSBURG      PTCLDY    31  31  98 CALM      30.09S
BARABOO/DELLS  PTCLDY    32  31  96 S3        30.08S
LONE ROCK      NOT AVBL
MINERAL POINT  PTCLDY    36  32  87 S3        30.09S
MADISON        MOCLDY    34  32  92 CALM      30.10S
6HR MIN TEMP:  31; 6HR MAX TEMP:  34;

MIDDLETON      CLOUDY    35  33  92 CALM      30.09F
WATERTOWN      PTCLDY    31  30  99 CALM      30.10S
MONROE         PTCLDY    34  32  93 SW7       30.09S WCI  28
JANESVILLE     CLEAR     32  30  93 CALM      30.10F
$$

WIZ051-052-058>065-066-070>072-301300-
SOUTHEAST WISCONSIN

CITY           SKY/WX    TMP DP  RH WIND       PRES   REMARKS
MILWAUKEE      MOCLDY    36  31  82 SW3       30.11S
6HR MIN TEMP:  32; 6HR MAX TEMP:  40;

WAUKESHA       CLEAR     30  28  93 CALM      30.12S
MILWAUKEE/TIMM CLEAR     34  28  80 CALM      30.11F
RACINE         PTCLDY    36  31  82 W3        30.13S
6HR MIN TEMP:  34; 6HR MAX TEMP:  38;

BURLINGTON     PTCLDY    28  28 100 SW3       30.12S
KENOSHA        PTCLDY    35  32  88 SW3       30.12S
6HR MIN TEMP:  30; 6HR MAX TEMP:  35;

FOND DU LAC    MOCLDY    32  30  92 S5        30.10S WCI  27
6HR MIN TEMP:  30; 6HR MAX TEMP:  34;

SHEBOYGAN      MOCLDY    34  31  88 S3        30.10S
6HR MIN TEMP:  30; 6HR MAX TEMP:  36;

WEST BEND      MOCLDY    32  30  93 CALM      30.10S
JUNEAU         PTCLDY    31  29  94 SE3       30.11R
$$

LSZ147-162-301300-
LAKE SUPERIOR

STATION/POSITION TIME  TEMP    WIND        PRES    WAVE
                       AIR SEA DIR/SP/G            HT/PER
                 (UTC) (F)     (DEG/KT/KT) (MB)    (FT/S)
W MID LAKE BUOY  1050   41 45  250/ 12/ 14 1017.1F   2/ 4
DEVILS ISLAND    1100   40     270/ 11/ 15 1017.9F
PORT WING        1140   39     230/  4/  7 1017.9S
SAXON HARBOR     1100   40     260/  2/  7 1017.9
$$

LMZ867-665-643>646-301300-
LAKE MICHIGAN

STATION/POSITION TIME  TEMP    WIND        PRES    WAVE
                       AIR SEA DIR/SP/G            HT/PER
                 (UTC) (F)     (DEG/KT/KT) (MB)    (FT/S)
CHAMBERS ISLAND  1100   41     130/  1/  2 1018.6S
N MID LAKE BUOY  1050   44 51   CALM  /  2 1018.7S   0
NORTHPORT PIER   1100   42      CALM  /  2 1018.3S
KEWAUNEE LAKESHO 1100   39     290/  4/  5 1018.0R
SHEBOYGAN LAKESH 1100   37 50  260/  8/  9 1020.1R
PORT WASHINGTON  1100   38     280/  4/  5 1020.3R
ATWATER BUOY     1100   44     230/  6/  8 1020.6S
MILWAUKEE LAKESH 1100   42     230/  6/  7   N/A
S MID LAKE BUOY  1050   47 53  240/ 10/ 12 1020.2S   1/ 5
KENOSHA   LAKESH 1100   39     250/  7/  9 1020.0R
$$

TC  - TEMPERATURE IN CELSIUS
VSB - VISIBILITY IN STATUTE MILES
WCI - WIND CHILL INDEX
HX  - HEAT INDEX




USA.gov is the U.S. government's official web portal to all federal, state and local government web resources and services.